Volver al catálogo

TITAN 3C TRANSTAGE DEB

LostHEO
NORAD 28835·DEBRIS·🇺🇸 United States

Lanzado Dec 21, 1965 desde Cape Canaveral Space Force Station

Loading…

Próximos Pases (próximas 24 horas)

TLE

ObsoletoSource: Space-Track

Época: Mar 16, 2026, 18:51 UTC

1 28835U 65108CM  26075.78559464  .00000070  00000-0  22560-2 0  9998
2 28835  27.4553 269.7049 6736644  73.6869   4.2320  2.75550414131645

Sigue TITAN 3C TRANSTAGE DEB en tiempo real con AllMySat

Download on the App Store